Weather History for Sanford, NC

Change the Weather History Date:

Tuesday, March 26, 2013

  Actual Average (KRDU) Record (KRDU)
Temperature  
Mean Temperature 40 °F 54 °F  
Max Temperature 49 °F 67 °F 87 °F (1929)
Min Temperature 30 °F 43 °F 22 °F (1940)
Degree Days  
Heating Degree Days 26 11  
Month to date heating degree days 374  
Since 1 July heating degree days 2946  
Cooling Degree Days 0 0  
Month to date cooling degree days 0  
Year to date cooling degree days 1  
Moisture  
Dew Point 26 °F    
Average Humidity 52    
Maximum Humidity 82    
Minimum Humidity 38    
Precipitation  
Precipitation 0.00 in 0.14 in 1.18 in (1888)
Month to date precipitation 3.46  
Year to date precipitation 10.19  
Snow  
Snow 0.00 in 0.00 in 5.20 in (1971)
Month to date snowfall 0.5  
Since 1 July snowfall 6.0  
Snow Depth -    
Sea Level Pressure  
Sea Level Pressure 29.95 in    
Wind  
Wind Speed 6 mph (West)    
Max Wind Speed 13 mph    
Max Gust Speed 18 mph    
Visibility 10 miles    
Events      
T = Trace of Precipitation, MM = Missing Value Source: NWS Daily Summary

Daily Weather History Graph

Daily Weather History Graph

Search for Another Location

Airport:

Trip Planner

Search our weather history database for the weather conditions in past years. The results will help you decide how hot, cold, wet, or windy it might be!

Date:

Astronomy

Mar. 26, 2013 Rise Set
Actual Time 7:11 AM EDT 7:33 PM EDT
Civil Twilight 6:45 AM EDT 7:58 PM EDT
Nautical Twilight 6:15 AM EDT 8:28 PM EDT
Astronomical Twilight 5:45 AM EDT 8:59 PM EDT
Moon 7:07 PM EDT (3/26) 6:26 AM EDT (3/26)
Length of Visible Light 13h 13m
Length of Day
12h 22m
Waxing Gibbous, 99% of the Moon is Illuminated
Mar 26
Waxing Gibbous
Mar 27
Full
Apr 3
Last Quarter
Apr 10
New
Apr 18
First Quarter

Hourly Weather History & Observations

Time (EDT) Temp. Windchill Dew Point Humidity Pressure Visibility Wind Dir Wind Speed Gust Speed Precip Events Conditions
12:15 AM 38.8 °F 35.4 °F 23.7 °F 55% 29.84 in 10.0 mi West 4.6 mph - N/A   Clear
12:35 AM 38.3 °F 33.9 °F 23.9 °F 56% 29.84 in 10.0 mi West 5.8 mph - N/A   Clear
12:55 AM 37.6 °F 33.1 °F 24.3 °F 59% 29.85 in 10.0 mi WSW 5.8 mph - N/A   Clear
1:15 AM 37.4 °F 33.8 °F 24.4 °F 60% 29.85 in 10.0 mi West 4.6 mph - N/A   Scattered Clouds
1:35 AM 37.6 °F 34.0 °F 24.8 °F 60% 29.86 in 10.0 mi WSW 4.6 mph - N/A   Mostly Cloudy
1:55 AM 37.9 °F 33.5 °F 24.6 °F 59% 29.86 in 10.0 mi WSW 5.8 mph - N/A   Overcast
2:15 AM 38.3 °F 33.2 °F 25.0 °F 59% 29.86 in 10.0 mi WSW 6.9 mph - N/A   Overcast
2:35 AM 37.8 °F 34.2 °F 25.7 °F 62% 29.86 in 10.0 mi SW 4.6 mph - N/A   Overcast
2:55 AM 37.8 °F 33.3 °F 25.7 °F 62% 29.87 in 10.0 mi WSW 5.8 mph - N/A   Overcast
3:15 AM 37.8 °F 33.3 °F 25.7 °F 62% 29.87 in 10.0 mi WSW 5.8 mph - N/A   Overcast
3:35 AM 37.8 °F 31.3 °F 25.9 °F 62% 29.86 in 10.0 mi West 9.2 mph - N/A   Overcast
4:15 AM 37.9 °F 33.5 °F 25.7 °F 61% 29.87 in 10.0 mi West 5.8 mph - N/A   Overcast
4:35 AM 37.9 °F 32.1 °F 25.7 °F 61% 29.87 in 10.0 mi WSW 8.1 mph - N/A   Overcast
4:55 AM 37.9 °F 33.5 °F 25.5 °F 61% 29.88 in 10.0 mi WSW 5.8 mph - N/A   Overcast
5:15 AM 37.4 °F 32.8 °F 25.7 °F 63% 29.88 in 10.0 mi WSW 5.8 mph - N/A   Overcast
5:35 AM 36.7 °F 32.9 °F 26.1 °F 65% 29.88 in 10.0 mi SW 4.6 mph - N/A   Overcast
6:15 AM 35.2 °F - 25.7 °F 68% 29.88 in 10.0 mi Calm Calm - N/A   Scattered Clouds
6:35 AM 34.2 °F 31.2 °F 25.7 °F 71% 29.89 in 10.0 mi SW 3.5 mph - N/A   Scattered Clouds
6:55 AM 32.5 °F 28.1 °F 26.1 °F 77% 29.90 in 10.0 mi SW 4.6 mph - N/A   Clear
7:15 AM 31.1 °F 27.7 °F 25.7 °F 80% 29.90 in 10.0 mi SW 3.5 mph - N/A   Clear
7:35 AM 30.7 °F - 25.7 °F 82% 29.91 in 10.0 mi Calm Calm - N/A   Clear
8:15 AM 33.6 °F 29.4 °F 27.1 °F 77% 29.92 in 10.0 mi SW 4.6 mph - N/A   Clear
8:35 AM 35.8 °F 30.9 °F 27.0 °F 70% 29.92 in 10.0 mi WSW 5.8 mph - N/A   Scattered Clouds
8:55 AM 37.8 °F 32.5 °F 27.0 °F 65% 29.93 in 10.0 mi WSW 6.9 mph - N/A   Clear
9:15 AM 39.2 °F 33.0 °F 26.4 °F 60% 29.93 in 10.0 mi WSW 9.2 mph - N/A   Clear
9:35 AM 40.5 °F 35.8 °F 26.6 °F 58% 29.94 in 10.0 mi West 6.9 mph - N/A   Clear
9:55 AM 41.9 °F 37.5 °F 26.8 °F 55% 29.93 in 10.0 mi West 6.9 mph - N/A   Clear
10:15 AM 42.8 °F 38.6 °F 26.6 °F 53% 29.93 in 10.0 mi WNW 6.9 mph - N/A   Clear
10:35 AM 44.6 °F 40.2 °F 26.4 °F 49% 29.93 in 10.0 mi West 8.1 mph - N/A   Clear
10:55 AM 45.9 °F 40.8 °F 25.7 °F 45% 29.94 in 10.0 mi NNW 10.4 mph - N/A   Scattered Clouds
11:15 AM 46.0 °F 41.4 °F 24.6 °F 43% 29.94 in 10.0 mi NW 9.2 mph 16.1 mph N/A   Scattered Clouds
11:35 AM 47.1 °F - 25.2 °F 42% 29.94 in 10.0 mi North 5.8 mph - N/A   Scattered Clouds
11:55 AM 47.3 °F - 25.3 °F 42% 29.94 in 10.0 mi NW 11.5 mph - N/A   Mostly Cloudy
12:15 PM 48.4 °F - 26.1 °F 42% 29.94 in 10.0 mi NNW 6.9 mph - N/A   Mostly Cloudy
12:35 PM 47.5 °F - 25.2 °F 42% 29.94 in 10.0 mi West 8.1 mph - N/A   Overcast
12:55 PM 47.7 °F - 25.2 °F 41% 29.95 in 10.0 mi NW 8.1 mph - N/A   Overcast
1:15 PM 47.5 °F - 25.3 °F 42% 29.95 in 10.0 mi NW 9.2 mph - N/A   Overcast
1:35 PM 47.5 °F - 25.2 °F 42% 29.94 in 10.0 mi West 9.2 mph - N/A   Overcast
1:55 PM 47.7 °F - 25.2 °F 41% 29.95 in 10.0 mi NW 10.4 mph - N/A   Overcast
2:15 PM 47.7 °F - 25.5 °F 42% 29.95 in 10.0 mi West 5.8 mph - N/A   Overcast
2:35 PM 47.7 °F - 25.9 °F 43% 29.95 in 10.0 mi WNW 10.4 mph - N/A   Overcast
2:55 PM 48.2 °F - 25.2 °F 41% 29.95 in 10.0 mi NW 11.5 mph 17.3 mph N/A   Overcast
3:15 PM 48.0 °F - 26.6 °F 43% 29.95 in 10.0 mi NW 9.2 mph 18.4 mph N/A   Overcast
3:35 PM 48.2 °F - 26.8 °F 43% 29.96 in 10.0 mi WNW 9.2 mph - N/A   Overcast
3:55 PM 47.7 °F - 27.0 °F 45% 29.96 in 10.0 mi NW 10.4 mph 18.4 mph N/A   Overcast
4:15 PM 48.7 °F - 27.1 °F 43% 29.96 in 10.0 mi NW 8.1 mph - N/A   Overcast
4:35 PM 49.6 °F - 27.1 °F 42% 29.96 in 10.0 mi West 9.2 mph - N/A   Overcast
4:55 PM 48.2 °F - 25.7 °F 42% 29.96 in 10.0 mi NW 10.4 mph 18.4 mph N/A   Overcast
5:15 PM 48.2 °F - 26.2 °F 42% 29.97 in 10.0 mi WNW 6.9 mph - N/A   Overcast
5:35 PM 48.6 °F - 26.1 °F 42% 29.98 in 10.0 mi WNW 8.1 mph - N/A   Overcast
5:55 PM 47.8 °F - 25.2 °F 41% 29.99 in 10.0 mi NW 12.7 mph 16.1 mph N/A   Overcast
6:15 PM 49.5 °F - 25.0 °F 38% 29.99 in 10.0 mi NNW 8.1 mph - N/A   Overcast
6:35 PM 48.2 °F - 25.5 °F 41% 29.99 in 10.0 mi NW 8.1 mph - N/A   Overcast
7:15 PM 46.9 °F - 25.2 °F 43% 30.01 in 10.0 mi NW 5.8 mph - N/A   Overcast
7:35 PM 46.6 °F - 26.2 °F 45% 30.02 in 10.0 mi WNW 3.5 mph - N/A   Overcast
7:55 PM 46.4 °F 43.5 °F 25.9 °F 45% 30.03 in 10.0 mi NW 5.8 mph - N/A   Overcast
8:15 PM 46.0 °F 43.9 °F 25.7 °F 45% 30.04 in 10.0 mi WNW 4.6 mph - N/A   Overcast
8:35 PM 45.5 °F 44.2 °F 25.9 °F 46% 30.05 in 10.0 mi West 3.5 mph - N/A   Overcast
8:55 PM 45.5 °F 41.3 °F 25.5 °F 46% 30.06 in 10.0 mi WNW 8.1 mph - N/A   Overcast
9:15 PM 45.5 °F 40.8 °F 23.9 °F 43% 30.07 in 10.0 mi NW 9.2 mph - N/A   Mostly Cloudy
9:35 PM 44.4 °F 42.0 °F 24.1 °F 45% 30.08 in 10.0 mi NW 4.6 mph - N/A   Scattered Clouds
9:55 PM 43.7 °F 40.3 °F 24.1 °F 46% 30.09 in 10.0 mi WNW 5.8 mph - N/A   Clear
10:15 PM 42.6 °F 39.9 °F 24.6 °F 49% 30.10 in 10.0 mi WNW 4.6 mph - N/A   Clear
10:35 PM 41.7 °F 37.3 °F 24.8 °F 51% 30.10 in 10.0 mi West 6.9 mph - N/A   Clear
10:55 PM 41.4 °F 37.6 °F 24.8 °F 52% 30.11 in 10.0 mi West 5.8 mph - N/A   Clear
11:15 PM 40.8 °F 36.9 °F 24.8 °F 53% 30.11 in 10.0 mi West 5.8 mph - N/A   Clear
11:35 PM 41.2 °F 35.5 °F 25.0 °F 53% 30.11 in 10.0 mi West 9.2 mph - N/A   Clear
11:55 PM 41.0 °F 36.4 °F 25.2 °F 53% 30.12 in 10.0 mi West 6.9 mph - N/A   Clear